Time,TemperatureF,DewpointF,PressureIn,WindDirection,WindDirectionDegrees,WindSpeedMPH,WindSpeedGustMPH,Humidity,HourlyPrecipIn,Conditions,Clouds,dailyrainin,SolarRadiationWatts/m^2,SoftwareType,DateUTC
2013-02-10 00:00:00,28.7,17.0,30.38,NNW,333,0.0,0.0,61,0.00,,,0.00,0.00,VWS V14.01,2013-02-10 05:00:00,
2013-02-10 00:01:00,28.7,17.3,30.38,NNW,333,0.0,0.0,62,0.00,,,0.00,0.00,VWS V14.01,2013-02-10 05:01:00,
2013-02-10 00:02:00,28.7,17.3,30.38,NNW,333,0.0,0.0,62,0.00,,,0.00,0.00,VWS V14.01,2013-02-10 05:02:00,
2013-02-10 00:07:00,28.4,16.7,30.38,NNW,333,0.0,0.0,61,0.00,,,0.00,0.00,VWS V14.01,2013-02-10 05:07:00,
2013-02-10 00:12:00,28.2,16.9,30.38,NNW,333,0.0,0.0,62,0.00,,,0.00,0.00,VWS V14.01,2013-02-10 05:12:00,
2013-02-10 00:17:00,28.0,17.0,30.38,NNW,333,0.0,0.0,63,0.00,,,0.00,0.00,VWS V14.01,2013-02-10 05:17:00,
2013-02-10 00:22:00,27.7,16.8,30.38,NNW,333,0.0,0.0,63,0.00,,,0.00,0.00,VWS V14.01,2013-02-10 05:22:00,
2013-02-10 00:27:00,27.5,16.6,30.39,NNW,333,0.0,0.0,63,0.00,,,0.00,0.00,VWS V14.01,2013-02-10 05:27:00,
2013-02-10 00:32:00,27.2,16.3,30.38,NNW,333,0.0,0.0,63,0.00,,,0.00,0.00,VWS V14.01,2013-02-10 05:32:00,
2013-02-10 00:37:00,26.9,16.7,30.38,NNW,333,0.0,0.0,65,0.00,,,0.00,0.00,VWS V14.01,2013-02-10 05:37:00,
2013-02-10 00:42:00,26.5,16.3,30.38,NNW,333,0.0,0.0,65,0.00,,,0.00,0.00,VWS V14.01,2013-02-10 05:42:00,
2013-02-10 00:47:00,26.2,16.4,30.38,NNW,333,0.0,0.0,66,0.00,,,0.00,0.00,VWS V14.01,2013-02-10 05:47:00,
2013-02-10 00:53:00,25.9,16.8,30.39,NNW,333,0.0,0.0,68,0.00,,,0.00,0.00,VWS V14.01,2013-02-10 05:53:00,
2013-02-10 00:58:00,25.6,16.9,30.38,NNW,333,0.0,0.0,69,0.00,,,0.00,0.00,VWS V14.01,2013-02-10 05:58:00,
2013-02-10 01:03:00,25.4,16.7,30.38,NNW,333,0.0,0.0,69,0.00,,,0.00,0.00,VWS V14.01,2013-02-10 06:03:00,
2013-02-10 01:08:00,25.3,16.6,30.38,NNW,333,0.0,0.0,69,0.00,,,0.00,0.00,VWS V14.01,2013-02-10 06:08:00,
2013-02-10 01:13:00,25.1,16.4,30.38,NNW,333,0.0,0.0,69,0.00,,,0.00,0.00,VWS V14.01,2013-02-10 06:13:00,
2013-02-10 01:18:00,24.9,16.2,30.39,NNW,333,0.0,0.0,69,0.00,,,0.00,0.00,VWS V14.01,2013-02-10 06:18:00,
2013-02-10 01:23:00,24.7,16.3,30.39,NNW,333,0.0,0.0,70,0.00,,,0.00,0.00,VWS V14.01,2013-02-10 06:23:00,
2013-02-10 01:28:00,24.5,16.1,30.39,NNW,333,0.0,0.0,70,0.00,,,0.00,0.00,VWS V14.01,2013-02-10 06:28:00,
2013-02-10 01:33:00,24.3,16.3,30.39,NNW,333,0.0,0.0,71,0.00,,,0.00,0.00,VWS V14.01,2013-02-10 06:33:00,
2013-02-10 01:38:00,24.0,16.0,30.39,NNW,333,0.0,0.0,71,0.00,,,0.00,0.00,VWS V14.01,2013-02-10 06:38:00,
2013-02-10 01:43:00,23.9,16.2,30.39,NNW,333,0.0,0.0,72,0.00,,,0.00,0.00,VWS V14.01,2013-02-10 06:43:00,
2013-02-10 01:48:00,23.7,16.0,30.39,NNW,333,0.0,0.0,72,0.00,,,0.00,0.00,VWS V14.01,2013-02-10 06:48:00,
2013-02-10 01:53:00,23.6,15.9,30.39,NNW,333,0.0,0.0,72,0.00,,,0.00,0.00,VWS V14.01,2013-02-10 06:53:00,
2013-02-10 01:59:00,23.5,15.8,30.40,NNW,333,0.0,0.0,72,0.00,,,0.00,0.00,VWS V14.01,2013-02-10 06:59:00,
2013-02-10 02:04:00,23.4,15.7,30.40,NNW,333,0.0,0.0,72,0.00,,,0.00,0.00,VWS V14.01,2013-02-10 07:04:00,
2013-02-10 02:09:00,23.2,15.5,30.40,NNW,333,0.0,0.0,72,0.00,,,0.00,0.00,VWS V14.01,2013-02-10 07:09:00,
2013-02-10 02:14:00,23.0,15.6,30.40,NNW,333,0.0,0.0,73,0.00,,,0.00,0.00,VWS V14.01,2013-02-10 07:14:00,
2013-02-10 02:19:00,22.9,15.6,30.40,NNW,333,0.0,0.0,73,0.00,,,0.00,0.00,VWS V14.01,2013-02-10 07:19:00,
2013-02-10 02:24:00,22.8,15.8,30.40,NNW,333,0.0,0.0,74,0.00,,,0.00,0.00,VWS V14.01,2013-02-10 07:24:00,
2013-02-10 02:29:00,22.7,15.7,30.40,NNW,333,0.0,0.0,74,0.00,,,0.00,0.00,VWS V14.01,2013-02-10 07:29:00,
2013-02-10 02:34:00,22.7,16.0,30.40,NNW,333,0.0,0.0,75,0.00,,,0.00,0.00,VWS V14.01,2013-02-10 07:34:00,
2013-02-10 02:39:00,22.7,16.0,30.39,NNW,333,0.0,0.0,75,0.00,,,0.00,0.00,VWS V14.01,2013-02-10 07:39:00,
2013-02-10 02:44:00,22.6,15.9,30.39,NNW,333,0.0,0.0,75,0.00,,,0.00,0.00,VWS V14.01,2013-02-10 07:44:00,
2013-02-10 02:49:00,22.5,15.8,30.39,NNW,333,0.0,0.0,75,0.00,,,0.00,0.00,VWS V14.01,2013-02-10 07:49:00,
2013-02-10 02:54:00,22.5,16.1,30.39,NNW,333,0.0,0.0,76,0.00,,,0.00,0.00,VWS V14.01,2013-02-10 07:54:00,
2013-02-10 03:00:00,22.4,16.0,30.38,NNW,333,0.0,0.0,76,0.00,,,0.00,0.00,VWS V14.01,2013-02-10 08:00:00,
2013-02-10 03:05:00,22.4,16.3,30.39,NNW,333,0.0,0.0,77,0.00,,,0.00,0.00,VWS V14.01,2013-02-10 08:05:00,
2013-02-10 03:10:00,22.4,16.3,30.38,NNW,333,0.0,0.0,77,0.00,,,0.00,0.00,VWS V14.01,2013-02-10 08:10:00,
2013-02-10 03:15:00,22.4,16.3,30.38,NNW,333,0.0,0.0,77,0.00,,,0.00,0.00,VWS V14.01,2013-02-10 08:15:00,
2013-02-10 03:20:00,22.2,16.1,30.38,NNW,333,0.0,0.0,77,0.00,,,0.00,0.00,VWS V14.01,2013-02-10 08:20:00,
2013-02-10 03:25:00,22.1,16.0,30.38,NNW,333,0.0,0.0,77,0.00,,,0.00,0.00,VWS V14.01,2013-02-10 08:25:00,
2013-02-10 03:30:00,22.0,15.9,30.38,NNW,333,0.0,0.0,77,0.00,,,0.00,0.00,VWS V14.01,2013-02-10 08:30:00,
2013-02-10 03:35:00,21.9,16.1,30.38,NNW,333,0.0,0.0,78,0.00,,,0.00,0.00,VWS V14.01,2013-02-10 08:35:00,
2013-02-10 03:40:00,21.8,16.0,30.38,NNW,333,0.0,0.0,78,0.00,,,0.00,0.00,VWS V14.01,2013-02-10 08:40:00,
2013-02-10 03:45:00,21.6,15.5,30.39,NNW,333,0.0,0.0,77,0.00,,,0.00,0.00,VWS V14.01,2013-02-10 08:45:00,
2013-02-10 03:50:00,21.4,15.3,30.39,NNW,333,2.0,2.0,77,0.00,,,0.00,0.00,VWS V14.01,2013-02-10 08:50:00,
2013-02-10 03:55:00,21.0,15.2,30.39,NNW,333,0.0,0.0,78,0.00,,,0.00,0.00,VWS V14.01,2013-02-10 08:55:00,
2013-02-10 04:00:00,20.7,15.2,30.39,NNW,333,0.0,0.0,79,0.00,,,0.00,0.00,VWS V14.01,2013-02-10 09:00:00,
2013-02-10 04:05:00,20.4,15.2,30.39,NNW,333,0.0,0.0,80,0.00,,,0.00,0.00,VWS V14.01,2013-02-10 09:05:00,
2013-02-10 04:10:00,20.3,15.1,30.39,NNW,333,0.0,0.0,80,0.00,,,0.00,0.00,VWS V14.01,2013-02-10 09:10:00,
2013-02-10 04:16:00,20.2,15.0,30.39,NNW,333,0.0,0.0,80,0.00,,,0.00,0.00,VWS V14.01,2013-02-10 09:16:00,
2013-02-10 04:21:00,20.0,14.8,30.39,NNW,333,0.0,0.0,80,0.00,,,0.00,0.00,VWS V14.01,2013-02-10 09:21:00,
2013-02-10 04:26:00,19.9,15.0,30.39,NNW,333,0.0,0.0,81,0.00,,,0.00,0.00,VWS V14.01,2013-02-10 09:26:00,
2013-02-10 04:31:00,19.7,14.8,30.40,NNW,333,0.0,0.0,81,0.00,,,0.00,0.00,VWS V14.01,2013-02-10 09:31:00,
2013-02-10 04:36:00,19.7,14.8,30.40,NNW,333,0.0,0.0,81,0.00,,,0.00,0.00,VWS V14.01,2013-02-10 09:36:00,
2013-02-10 04:41:00,19.7,14.8,30.40,NNW,333,0.0,0.0,81,0.00,,,0.00,0.00,VWS V14.01,2013-02-10 09:41:00,
2013-02-10 04:46:00,19.5,14.6,30.40,NNW,333,0.0,0.0,81,0.00,,,0.00,0.00,VWS V14.01,2013-02-10 09:46:00,
2013-02-10 04:51:00,19.3,14.7,30.39,NNW,333,0.0,0.0,82,0.00,,,0.00,0.00,VWS V14.01,2013-02-10 09:51:00,
2013-02-10 04:56:00,19.2,14.6,30.39,NNW,333,0.0,0.0,82,0.00,,,0.00,0.00,VWS V14.01,2013-02-10 09:56:00,
2013-02-10 05:01:00,19.1,14.5,30.39,NNW,333,0.0,0.0,82,0.00,,,0.00,0.00,VWS V14.01,2013-02-10 10:01:00,
2013-02-10 05:06:00,19.1,14.8,30.39,NNW,333,0.0,0.0,83,0.00,,,0.00,0.00,VWS V14.01,2013-02-10 10:06:00,
2013-02-10 05:11:00,19.1,14.8,30.39,NNW,333,0.0,0.0,83,0.00,,,0.00,0.00,VWS V14.01,2013-02-10 10:11:00,
2013-02-10 05:17:00,19.0,14.7,30.39,NNW,333,0.0,0.0,83,0.00,,,0.00,0.00,VWS V14.01,2013-02-10 10:17:00,
2013-02-10 05:22:00,18.8,14.5,30.39,NNW,333,0.0,0.0,83,0.00,,,0.00,0.00,VWS V14.01,2013-02-10 10:22:00,
2013-02-10 05:27:00,18.7,14.4,30.39,NNW,333,0.0,0.0,83,0.00,,,0.00,0.00,VWS V14.01,2013-02-10 10:27:00,
2013-02-10 05:32:00,18.6,14.3,30.39,NNW,333,0.0,0.0,83,0.00,,,0.00,0.00,VWS V14.01,2013-02-10 10:32:00,
2013-02-10 05:37:00,18.5,14.2,30.40,NNW,333,0.0,0.0,83,0.00,,,0.00,0.00,VWS V14.01,2013-02-10 10:37:00,
2013-02-10 05:42:00,18.4,14.1,30.40,NNW,333,0.0,0.0,83,0.00,,,0.00,0.00,VWS V14.01,2013-02-10 10:42:00,
2013-02-10 05:47:00,18.3,14.0,30.40,NNW,333,0.0,0.0,83,0.00,,,0.00,0.00,VWS V14.01,2013-02-10 10:47:00,
2013-02-10 05:52:00,18.2,14.2,30.40,NNW,333,0.0,0.0,84,0.00,,,0.00,0.00,VWS V14.01,2013-02-10 10:52:00,
2013-02-10 05:57:00,18.5,14.8,30.40,NNW,333,0.0,0.0,85,0.00,,,0.00,0.00,VWS V14.01,2013-02-10 10:57:00,
2013-02-10 06:02:00,18.7,15.2,30.40,NNW,333,0.0,0.0,86,0.00,,,0.00,0.00,VWS V14.01,2013-02-10 11:02:00,
2013-02-10 06:07:00,18.7,15.2,30.40,NNW,333,0.0,0.0,86,0.00,,,0.00,0.00,VWS V14.01,2013-02-10 11:07:00,
2013-02-10 06:12:00,18.6,15.1,30.40,NNW,333,0.0,0.0,86,0.00,,,0.00,0.00,VWS V14.01,2013-02-10 11:12:00,
2013-02-10 06:18:00,18.4,14.9,30.40,NNW,333,0.0,0.0,86,0.00,,,0.00,0.00,VWS V14.01,2013-02-10 11:18:00,
2013-02-10 06:23:00,18.3,14.8,30.41,NNW,333,0.0,0.0,86,0.00,,,0.00,0.00,VWS V14.01,2013-02-10 11:23:00,
2013-02-10 06:28:00,18.2,14.7,30.41,NNW,333,0.0,0.0,86,0.00,,,0.00,0.00,VWS V14.01,2013-02-10 11:28:00,
2013-02-10 06:33:00,18.1,14.6,30.41,NNW,333,0.0,0.0,86,0.00,,,0.00,0.00,VWS V14.01,2013-02-10 11:33:00,
2013-02-10 06:38:00,18.0,14.5,30.41,NNW,333,0.0,0.0,86,0.00,,,0.00,0.00,VWS V14.01,2013-02-10 11:38:00,
2013-02-10 06:43:00,17.9,14.4,30.41,NNW,333,0.0,0.0,86,0.00,,,0.00,0.00,VWS V14.01,2013-02-10 11:43:00,
2013-02-10 06:48:00,17.8,14.3,30.41,NNW,333,0.0,0.0,86,0.00,,,0.00,0.00,VWS V14.01,2013-02-10 11:48:00,
2013-02-10 06:53:00,17.7,14.2,30.42,NNW,333,0.0,0.0,86,0.00,,,0.00,0.00,VWS V14.01,2013-02-10 11:53:00,
2013-02-10 06:58:00,17.6,14.1,30.42,NNW,333,0.0,0.0,86,0.00,,,0.00,0.00,VWS V14.01,2013-02-10 11:58:00,
2013-02-10 07:03:00,17.5,14.0,30.43,NNW,333,0.0,0.0,86,0.00,,,0.00,0.00,VWS V14.01,2013-02-10 12:03:00,
2013-02-10 07:08:00,17.4,13.9,30.43,NNW,333,0.0,0.0,86,0.00,,,0.00,7.00,VWS V14.01,2013-02-10 12:08:00,
2013-02-10 07:13:00,17.3,14.1,30.44,NNW,333,0.0,0.0,87,0.00,,,0.00,11.00,VWS V14.01,2013-02-10 12:13:00,
2013-02-10 07:19:00,17.3,14.1,30.44,NNW,333,0.0,0.0,87,0.00,,,0.00,16.00,VWS V14.01,2013-02-10 12:19:00,
2013-02-10 07:24:00,17.3,14.1,30.44,NNW,333,0.0,0.0,87,0.00,,,0.00,23.00,VWS V14.01,2013-02-10 12:24:00,
2013-02-10 07:29:00,17.3,14.1,30.44,NNW,333,0.0,0.0,87,0.00,,,0.00,28.00,VWS V14.01,2013-02-10 12:29:00,
2013-02-10 07:34:00,17.4,14.5,30.44,NNW,333,0.0,0.0,88,0.00,,,0.00,32.00,VWS V14.01,2013-02-10 12:34:00,
2013-02-10 07:39:00,17.6,14.7,30.44,NNW,333,0.0,0.0,88,0.00,,,0.00,37.00,VWS V14.01,2013-02-10 12:39:00,
2013-02-10 07:44:00,17.9,15.2,30.45,NNW,333,0.0,0.0,89,0.00,,,0.00,40.00,VWS V14.01,2013-02-10 12:44:00,
2013-02-10 07:49:00,18.2,15.5,30.44,NNW,333,0.0,0.0,89,0.00,,,0.00,46.00,VWS V14.01,2013-02-10 12:49:00,
2013-02-10 07:54:00,18.5,15.8,30.44,NNW,333,0.0,0.0,89,0.00,,,0.00,51.00,VWS V14.01,2013-02-10 12:54:00,
2013-02-10 07:59:00,18.8,16.4,30.44,NNW,333,0.0,0.0,90,0.00,,,0.00,56.00,VWS V14.01,2013-02-10 12:59:00,
2013-02-10 08:04:00,19.2,16.8,30.44,NNW,333,0.0,0.0,90,0.00,,,0.00,65.00,VWS V14.01,2013-02-10 13:04:00,
2013-02-10 08:09:00,19.8,17.6,30.43,NNW,333,0.0,0.0,91,0.00,,,0.00,77.00,VWS V14.01,2013-02-10 13:09:00,
2013-02-10 08:15:00,20.6,18.4,30.44,NNW,333,0.0,0.0,91,0.00,,,0.00,86.00,VWS V14.01,2013-02-10 13:15:00,
2013-02-10 08:20:00,21.3,18.8,30.44,NNW,333,0.0,0.0,90,0.00,,,0.00,93.00,VWS V14.01,2013-02-10 13:20:00,
2013-02-10 08:25:00,21.9,19.4,30.44,NNW,333,0.0,0.0,90,0.00,,,0.00,100.00,VWS V14.01,2013-02-10 13:25:00,
2013-02-10 08:30:00,22.5,20.0,30.44,NNW,333,0.0,0.0,90,0.00,,,0.00,109.00,VWS V14.01,2013-02-10 13:30:00,
2013-02-10 08:35:00,23.2,20.7,30.44,NNW,333,0.0,0.0,90,0.00,,,0.00,111.00,VWS V14.01,2013-02-10 13:35:00,
2013-02-10 08:40:00,23.8,21.0,30.45,NNW,333,0.0,0.0,89,0.00,,,0.00,114.00,VWS V14.01,2013-02-10 13:40:00,
2013-02-10 08:45:00,24.2,21.2,30.45,NNW,333,0.0,1.0,88,0.00,,,0.00,120.00,VWS V14.01,2013-02-10 13:45:00,
2013-02-10 08:50:00,24.4,21.1,30.44,NNW,333,0.0,0.0,87,0.00,,,0.00,123.00,VWS V14.01,2013-02-10 13:50:00,
2013-02-10 08:55:00,24.8,20.9,30.44,NNW,333,0.0,0.0,85,0.00,,,0.00,139.00,VWS V14.01,2013-02-10 13:55:00,
2013-02-10 09:00:00,25.2,21.0,30.44,NNW,333,0.0,1.0,84,0.00,,,0.00,174.00,VWS V14.01,2013-02-10 14:00:00,
2013-02-10 09:05:00,25.7,21.3,30.44,NNW,333,0.0,0.0,83,0.00,,,0.00,214.00,VWS V14.01,2013-02-10 14:05:00,
2013-02-10 09:10:00,26.3,21.6,30.43,NNW,333,0.0,0.0,82,0.00,,,0.00,195.00,VWS V14.01,2013-02-10 14:10:00,
2013-02-10 09:16:00,26.9,22.1,30.43,NNW,333,0.0,0.0,82,0.00,,,0.00,204.00,VWS V14.01,2013-02-10 14:16:00,
2013-02-10 09:21:00,27.4,22.0,30.43,NNW,333,0.0,0.0,80,0.00,,,0.00,199.00,VWS V14.01,2013-02-10 14:21:00,
2013-02-10 09:26:00,27.8,22.1,30.43,NNW,333,0.0,0.0,79,0.00,,,0.00,199.00,VWS V14.01,2013-02-10 14:26:00,
2013-02-10 09:31:00,28.3,22.9,30.43,NNW,334,0.0,0.0,80,0.00,,,0.00,199.00,VWS V14.01,2013-02-10 14:31:00,
2013-02-10 09:36:00,28.7,22.4,30.43,NNW,334,0.0,0.0,77,0.00,,,0.00,190.00,VWS V14.01,2013-02-10 14:36:00,
2013-02-10 09:41:00,29.1,22.2,30.43,NNW,334,0.0,0.0,75,0.00,,,0.00,225.00,VWS V14.01,2013-02-10 14:41:00,
2013-02-10 09:46:00,29.6,22.7,30.43,NNW,334,0.0,0.0,75,0.00,,,0.00,230.00,VWS V14.01,2013-02-10 14:46:00,
2013-02-10 09:52:00,30.2,22.6,30.43,NNW,334,0.0,0.0,73,0.00,,,0.00,250.00,VWS V14.01,2013-02-10 14:52:00,
2013-02-10 09:57:00,30.7,22.4,30.43,NNW,333,0.0,0.0,71,0.00,,,0.00,236.00,VWS V14.01,2013-02-10 14:57:00,
2013-02-10 10:02:00,31.1,22.8,30.43,WNW,290,0.0,2.0,71,0.00,,,0.00,244.00,VWS V14.01,2013-02-10 15:02:00,
2013-02-10 10:07:00,31.3,22.7,30.43,SW,225,0.0,3.0,70,0.00,,,0.00,229.00,VWS V14.01,2013-02-10 15:07:00,
2013-02-10 10:12:00,31.6,23.0,30.44,SSW,213,2.0,3.0,70,0.00,,,0.00,339.00,VWS V14.01,2013-02-10 15:12:00,
2013-02-10 10:17:00,32.2,21.8,30.44,SSW,209,4.0,6.0,65,0.00,,,0.00,462.00,VWS V14.01,2013-02-10 15:17:00,
2013-02-10 10:22:00,32.9,22.4,30.43,South,183,0.0,5.0,65,0.00,,,0.00,392.00,VWS V14.01,2013-02-10 15:22:00,
2013-02-10 10:28:00,33.3,21.3,30.43,SSW,205,6.0,6.0,61,0.00,,,0.00,246.00,VWS V14.01,2013-02-10 15:28:00,
2013-02-10 10:33:00,33.7,22.1,30.44,South,171,2.0,4.0,62,0.00,,,0.00,281.00,VWS V14.01,2013-02-10 15:33:00,
2013-02-10 10:38:00,34.1,21.7,30.44,South,183,1.0,6.0,60,0.00,,,0.00,327.00,VWS V14.01,2013-02-10 15:38:00,
2013-02-10 10:43:00,34.4,21.2,30.43,South,180,3.0,7.0,58,0.00,,,0.00,218.00,VWS V14.01,2013-02-10 15:43:00,
2013-02-10 10:48:00,34.4,21.2,30.42,SE,146,4.0,5.0,58,0.00,,,0.00,360.00,VWS V14.01,2013-02-10 15:48:00,
2013-02-10 10:53:00,35.1,22.6,30.42,SSW,202,3.0,6.0,60,0.00,,,0.00,355.00,VWS V14.01,2013-02-10 15:53:00,
2013-02-10 10:58:00,36.0,22.3,30.41,SSE,157,2.0,7.0,57,0.00,,,0.00,371.00,VWS V14.01,2013-02-10 15:58:00,
2013-02-10 11:04:00,36.2,22.0,30.42,SSW,195,7.0,8.0,56,0.00,,,0.00,366.00,VWS V14.01,2013-02-10 16:04:00,
2013-02-10 11:09:00,36.1,21.5,30.41,SSE,151,6.0,8.0,55,0.00,,,0.00,343.00,VWS V14.01,2013-02-10 16:09:00,
2013-02-10 11:14:00,36.7,22.1,30.41,SSE,157,5.0,5.0,55,0.00,,,0.00,325.00,VWS V14.01,2013-02-10 16:14:00,
2013-02-10 11:19:00,36.9,20.9,30.41,South,188,2.0,10.0,52,0.00,,,0.00,343.00,VWS V14.01,2013-02-10 16:19:00,
2013-02-10 11:24:00,37.0,20.6,30.40,South,180,6.0,9.0,51,0.00,,,0.00,387.00,VWS V14.01,2013-02-10 16:24:00,
2013-02-10 11:29:00,37.3,20.4,30.40,South,176,3.0,11.0,50,0.00,,,0.00,411.00,VWS V14.01,2013-02-10 16:29:00,
2013-02-10 11:34:00,37.9,21.9,30.39,SSE,168,4.0,8.0,52,0.00,,,0.00,436.00,VWS V14.01,2013-02-10 16:34:00,
2013-02-10 11:39:00,38.5,20.5,30.39,SSW,196,6.0,11.0,48,0.00,,,0.00,452.00,VWS V14.01,2013-02-10 16:39:00,
2013-02-10 11:44:00,38.4,20.4,30.39,South,169,5.0,9.0,48,0.00,,,0.00,466.00,VWS V14.01,2013-02-10 16:44:00,
2013-02-10 11:50:00,38.8,21.3,30.39,South,182,3.0,9.0,49,0.00,,,0.00,434.00,VWS V14.01,2013-02-10 16:50:00,
2013-02-10 11:55:00,39.3,20.8,30.39,SE,140,8.0,9.0,47,0.00,,,0.00,355.00,VWS V14.01,2013-02-10 16:55:00,
2013-02-10 12:00:00,39.4,20.9,30.39,South,185,5.0,8.0,47,0.00,,,0.00,399.00,VWS V14.01,2013-02-10 17:00:00,
2013-02-10 12:05:00,39.6,21.0,30.38,SSW,213,6.0,10.0,47,0.00,,,0.00,380.00,VWS V14.01,2013-02-10 17:05:00,
2013-02-10 12:10:00,39.8,21.2,30.38,SW,221,10.0,11.0,47,0.00,,,0.00,367.00,VWS V14.01,2013-02-10 17:10:00,
2013-02-10 12:15:00,39.8,21.2,30.38,South,189,2.0,10.0,47,0.00,,,0.00,367.00,VWS V14.01,2013-02-10 17:15:00,
2013-02-10 12:20:00,40.3,21.2,30.38,South,187,1.0,12.0,46,0.00,,,0.00,424.00,VWS V14.01,2013-02-10 17:20:00,
2013-02-10 12:25:00,40.8,21.6,30.38,SSW,211,8.0,12.0,46,0.00,,,0.00,413.00,VWS V14.01,2013-02-10 17:25:00,
2013-02-10 12:30:00,40.9,20.7,30.37,SSW,209,7.0,7.0,44,0.00,,,0.00,455.00,VWS V14.01,2013-02-10 17:30:00,
2013-02-10 12:35:00,41.4,22.2,30.38,South,175,3.0,7.0,46,0.00,,,0.00,568.00,VWS V14.01,2013-02-10 17:35:00,
2013-02-10 12:40:00,41.3,21.6,30.38,SSW,204,6.0,7.0,45,0.00,,,0.00,415.00,VWS V14.01,2013-02-10 17:40:00,
2013-02-10 12:46:00,41.6,23.4,30.37,SSE,167,3.0,8.0,48,0.00,,,0.00,670.00,VWS V14.01,2013-02-10 17:46:00,
2013-02-10 12:51:00,42.3,24.0,30.36,South,179,4.0,6.0,48,0.00,,,0.00,649.00,VWS V14.01,2013-02-10 17:51:00,
2013-02-10 12:56:00,42.7,22.9,30.37,SSE,156,3.0,5.0,45,0.00,,,0.00,647.00,VWS V14.01,2013-02-10 17:56:00,
2013-02-10 13:01:00,42.7,22.9,30.35,South,180,3.0,6.0,45,0.00,,,0.00,441.00,VWS V14.01,2013-02-10 18:01:00,
2013-02-10 13:06:00,42.3,22.5,30.35,South,177,4.0,7.0,45,0.00,,,0.00,357.00,VWS V14.01,2013-02-10 18:06:00,
2013-02-10 13:11:00,41.9,21.6,30.35,South,171,1.0,5.0,44,0.00,,,0.00,482.00,VWS V14.01,2013-02-10 18:11:00,
2013-02-10 13:16:00,42.0,22.2,30.35,SSE,163,2.0,6.0,45,0.00,,,0.00,427.00,VWS V14.01,2013-02-10 18:16:00,
2013-02-10 13:21:00,42.2,22.4,30.34,SSE,167,8.0,12.0,45,0.00,,,0.00,357.00,VWS V14.01,2013-02-10 18:21:00,
2013-02-10 13:26:00,42.3,23.0,30.34,South,182,5.0,9.0,46,0.00,,,0.00,540.00,VWS V14.01,2013-02-10 18:26:00,
2013-02-10 13:32:00,42.9,22.0,30.34,SSW,194,7.0,10.0,43,0.00,,,0.00,455.00,VWS V14.01,2013-02-10 18:32:00,
2013-02-10 13:37:00,42.9,22.0,30.33,SE,146,6.0,7.0,43,0.00,,,0.00,455.00,VWS V14.01,2013-02-10 18:37:00,
2013-02-10 13:42:00,42.9,22.5,30.33,SSE,152,4.0,7.0,44,0.00,,,0.00,468.00,VWS V14.01,2013-02-10 18:42:00,
2013-02-10 13:47:00,42.9,22.0,30.33,SW,223,9.0,11.0,43,0.00,,,0.00,394.00,VWS V14.01,2013-02-10 18:47:00,
2013-02-10 13:52:00,42.8,21.3,30.32,South,179,7.0,11.0,42,0.00,,,0.00,529.00,VWS V14.01,2013-02-10 18:52:00,
2013-02-10 13:57:00,42.8,22.4,30.32,SSW,198,5.0,7.0,44,0.00,,,0.00,422.00,VWS V14.01,2013-02-10 18:57:00,
2013-02-10 14:02:00,42.9,22.0,30.31,SSW,205,5.0,10.0,43,0.00,,,0.00,381.00,VWS V14.01,2013-02-10 19:02:00,
2013-02-10 14:07:00,42.9,22.0,30.31,SSE,158,3.0,10.0,43,0.00,,,0.00,476.00,VWS V14.01,2013-02-10 19:07:00,
2013-02-10 14:13:00,43.2,22.2,30.31,SSE,153,2.0,11.0,43,0.00,,,0.00,494.00,VWS V14.01,2013-02-10 19:13:00,
2013-02-10 14:18:00,43.7,22.1,30.31,SSE,153,5.0,8.0,42,0.00,,,0.00,480.00,VWS V14.01,2013-02-10 19:18:00,
2013-02-10 14:23:00,43.8,22.2,30.31,South,178,6.0,10.0,42,0.00,,,0.00,425.00,VWS V14.01,2013-02-10 19:23:00,
2013-02-10 14:28:00,43.8,21.6,30.30,South,180,7.0,10.0,41,0.00,,,0.00,454.00,VWS V14.01,2013-02-10 19:28:00,
2013-02-10 14:33:00,43.7,21.6,30.30,South,184,4.0,10.0,41,0.00,,,0.00,461.00,VWS V14.01,2013-02-10 19:33:00,
2013-02-10 14:38:00,43.7,21.0,30.29,South,171,5.0,13.0,40,0.00,,,0.00,229.00,VWS V14.01,2013-02-10 19:38:00,
2013-02-10 14:43:00,43.4,21.9,30.29,SSE,167,6.0,10.0,42,0.00,,,0.00,380.00,VWS V14.01,2013-02-10 19:43:00,
2013-02-10 14:49:00,43.2,21.1,30.29,SSW,198,5.0,9.0,41,0.00,,,0.00,446.00,VWS V14.01,2013-02-10 19:49:00,
2013-02-10 14:54:00,43.5,22.0,30.28,South,187,6.0,11.0,42,0.00,,,0.00,399.00,VWS V14.01,2013-02-10 19:54:00,
2013-02-10 14:59:00,43.8,22.8,30.29,South,181,7.0,11.0,43,0.00,,,0.00,387.00,VWS V14.01,2013-02-10 19:59:00,
2013-02-10 15:04:00,44.0,22.4,30.29,South,179,6.0,9.0,42,0.00,,,0.00,380.00,VWS V14.01,2013-02-10 20:04:00,
2013-02-10 15:09:00,44.0,21.8,30.28,SSE,154,6.0,10.0,41,0.00,,,0.00,378.00,VWS V14.01,2013-02-10 20:09:00,
2013-02-10 15:14:00,43.9,22.3,30.28,South,171,4.0,11.0,42,0.00,,,0.00,362.00,VWS V14.01,2013-02-10 20:14:00,
2013-02-10 15:19:00,44.0,21.8,30.28,South,180,3.0,10.0,41,0.00,,,0.00,387.00,VWS V14.01,2013-02-10 20:19:00,
2013-02-10 15:24:00,43.8,21.6,30.28,SSW,206,4.0,11.0,41,0.00,,,0.00,171.00,VWS V14.01,2013-02-10 20:24:00,
2013-02-10 15:30:00,43.4,21.3,30.28,SSE,161,4.0,10.0,41,0.00,,,0.00,169.00,VWS V14.01,2013-02-10 20:30:00,
2013-02-10 15:35:00,43.0,20.9,30.29,SSE,165,7.0,11.0,41,0.00,,,0.00,158.00,VWS V14.01,2013-02-10 20:35:00,
2013-02-10 15:40:00,42.8,21.3,30.29,SSE,164,9.0,10.0,42,0.00,,,0.00,207.00,VWS V14.01,2013-02-10 20:40:00,
2013-02-10 15:45:00,42.7,21.2,30.29,South,175,7.0,11.0,42,0.00,,,0.00,132.00,VWS V14.01,2013-02-10 20:45:00,
2013-02-10 15:50:00,42.6,21.7,30.29,SSE,157,6.0,9.0,43,0.00,,,0.00,127.00,VWS V14.01,2013-02-10 20:50:00,
2013-02-10 15:55:00,42.4,21.5,30.28,South,175,1.0,10.0,43,0.00,,,0.00,120.00,VWS V14.01,2013-02-10 20:55:00,
2013-02-10 16:00:00,42.3,21.4,30.28,SSE,167,3.0,9.0,43,0.00,,,0.00,113.00,VWS V14.01,2013-02-10 21:00:00,
2013-02-10 16:05:00,42.2,21.3,30.28,SSE,168,3.0,9.0,43,0.00,,,0.00,120.00,VWS V14.01,2013-02-10 21:05:00,
2013-02-10 16:10:00,42.2,21.9,30.27,SSE,147,1.0,5.0,44,0.00,,,0.00,114.00,VWS V14.01,2013-02-10 21:10:00,
2013-02-10 16:15:00,42.3,22.0,30.27,South,183,6.0,7.0,44,0.00,,,0.00,104.00,VWS V14.01,2013-02-10 21:15:00,
2013-02-10 16:20:00,42.2,21.9,30.27,SSE,156,5.0,8.0,44,0.00,,,0.00,100.00,VWS V14.01,2013-02-10 21:20:00,
2013-02-10 16:25:00,42.2,22.4,30.27,South,172,3.0,7.0,45,0.00,,,0.00,95.00,VWS V14.01,2013-02-10 21:25:00,
2013-02-10 16:30:00,42.0,21.7,30.27,South,176,3.0,9.0,44,0.00,,,0.00,93.00,VWS V14.01,2013-02-10 21:30:00,
2013-02-10 16:35:00,42.0,22.2,30.27,South,175,0.0,5.0,45,0.00,,,0.00,88.00,VWS V14.01,2013-02-10 21:35:00,
2013-02-10 16:40:00,41.9,22.1,30.27,SSE,161,3.0,7.0,45,0.00,,,0.00,72.00,VWS V14.01,2013-02-10 21:40:00,
2013-02-10 16:45:00,41.8,21.5,30.27,South,179,2.0,7.0,44,0.00,,,0.00,62.00,VWS V14.01,2013-02-10 21:45:00,
2013-02-10 16:50:00,41.6,21.9,30.27,SSE,163,5.0,12.0,45,0.00,,,0.00,47.00,VWS V14.01,2013-02-10 21:50:00,
2013-02-10 16:55:00,41.5,21.8,30.27,South,172,1.0,9.0,45,0.00,,,0.00,39.00,VWS V14.01,2013-02-10 21:55:00,
2013-02-10 17:00:00,41.4,21.7,30.27,SSE,165,1.0,11.0,45,0.00,,,0.00,30.00,VWS V14.01,2013-02-10 22:00:00,
2013-02-10 17:05:00,41.3,21.6,30.27,SE,141,1.0,8.0,45,0.00,,,0.00,21.00,VWS V14.01,2013-02-10 22:05:00,
2013-02-10 17:10:00,41.2,22.0,30.27,SSE,162,0.0,9.0,46,0.00,,,0.00,18.00,VWS V14.01,2013-02-10 22:10:00,
2013-02-10 17:15:00,41.1,21.9,30.27,South,170,1.0,7.0,46,0.00,,,0.00,14.00,VWS V14.01,2013-02-10 22:15:00,
2013-02-10 17:20:00,41.1,22.4,30.26,South,172,0.0,10.0,47,0.00,,,0.00,12.00,VWS V14.01,2013-02-10 22:20:00,
2013-02-10 17:25:00,41.0,21.8,30.26,SSE,164,4.0,5.0,46,0.00,,,0.00,9.00,VWS V14.01,2013-02-10 22:25:00,
2013-02-10 17:30:00,41.0,21.8,30.26,SSE,166,4.0,6.0,46,0.00,,,0.00,7.00,VWS V14.01,2013-02-10 22:30:00,
2013-02-10 17:35:00,40.9,21.7,30.26,South,187,5.0,8.0,46,0.00,,,0.00,0.00,VWS V14.01,2013-02-10 22:35:00,
2013-02-10 17:40:00,40.9,21.7,30.26,South,180,2.0,6.0,46,0.00,,,0.00,0.00,VWS V14.01,2013-02-10 22:40:00,
2013-02-10 17:45:00,40.8,21.6,30.26,South,170,0.0,4.0,46,0.00,,,0.00,0.00,VWS V14.01,2013-02-10 22:45:00,
2013-02-10 17:50:00,40.7,21.5,30.26,SSE,168,0.0,6.0,46,0.00,,,0.00,0.00,VWS V14.01,2013-02-10 22:50:00,
2013-02-10 17:55:00,40.7,21.5,30.26,South,184,3.0,5.0,46,0.00,,,0.00,0.00,VWS V14.01,2013-02-10 22:55:00,
2013-02-10 18:00:00,40.7,21.5,30.26,SSE,160,6.0,8.0,46,0.00,,,0.00,0.00,VWS V14.01,2013-02-10 23:00:00,
2013-02-10 18:05:00,40.8,21.6,30.26,South,191,7.0,7.0,46,0.00,,,0.00,0.00,VWS V14.01,2013-02-10 23:05:00,
2013-02-10 18:10:00,40.9,21.7,30.26,South,178,4.0,10.0,46,0.00,,,0.00,0.00,VWS V14.01,2013-02-10 23:10:00,
2013-02-10 18:15:00,40.9,21.7,30.26,South,169,2.0,7.0,46,0.00,,,0.00,0.00,VWS V14.01,2013-02-10 23:15:00,
2013-02-10 18:20:00,41.0,22.8,30.26,SSE,165,4.0,9.0,48,0.00,,,0.00,0.00,VWS V14.01,2013-02-10 23:20:00,
2013-02-10 18:25:00,41.2,22.0,30.25,South,175,7.0,13.0,46,0.00,,,0.00,0.00,VWS V14.01,2013-02-10 23:25:00,
2013-02-10 18:30:00,41.3,21.6,30.26,South,182,4.0,8.0,45,0.00,,,0.00,0.00,VWS V14.01,2013-02-10 23:30:00,
2013-02-10 18:35:00,41.3,21.6,30.25,SSE,161,6.0,8.0,45,0.00,,,0.00,0.00,VWS V14.01,2013-02-10 23:35:00,
2013-02-10 18:40:00,41.3,22.1,30.26,South,174,7.0,10.0,46,0.00,,,0.00,0.00,VWS V14.01,2013-02-10 23:40:00,
2013-02-10 18:45:00,41.2,21.5,30.25,SSE,161,3.0,8.0,45,0.00,,,0.00,0.00,VWS V14.01,2013-02-10 23:45:00,
2013-02-10 18:50:00,41.3,21.6,30.25,SSE,157,3.0,11.0,45,0.00,,,0.00,0.00,VWS V14.01,2013-02-10 23:50:00,
2013-02-10 18:55:00,41.3,21.0,30.25,South,178,8.0,11.0,44,0.00,,,0.00,0.00,VWS V14.01,2013-02-10 23:55:00,
2013-02-10 19:00:00,41.3,21.6,30.25,SE,135,5.0,9.0,45,0.00,,,0.00,0.00,VWS V14.01,2013-02-11 00:00:00,
2013-02-10 19:05:00,41.2,21.5,30.25,SSE,164,5.0,10.0,45,0.00,,,0.00,0.00,VWS V14.01,2013-02-11 00:05:00,
2013-02-10 19:10:00,41.2,21.5,30.25,South,170,4.0,11.0,45,0.00,,,0.00,0.00,VWS V14.01,2013-02-11 00:10:00,
2013-02-10 19:15:00,41.1,21.4,30.25,SSE,159,1.0,12.0,45,0.00,,,0.00,0.00,VWS V14.01,2013-02-11 00:15:00,
2013-02-10 19:20:00,41.1,21.4,30.25,SSE,150,5.0,8.0,45,0.00,,,0.00,0.00,VWS V14.01,2013-02-11 00:20:00,
2013-02-10 19:25:00,41.0,21.3,30.25,SE,144,7.0,9.0,45,0.00,,,0.00,0.00,VWS V14.01,2013-02-11 00:25:00,
2013-02-10 19:30:00,40.9,21.7,30.25,SSE,163,3.0,7.0,46,0.00,,,0.00,0.00,VWS V14.01,2013-02-11 00:30:00,
2013-02-10 19:35:00,40.8,22.1,30.25,SSE,159,4.0,6.0,47,0.00,,,0.00,0.00,VWS V14.01,2013-02-11 00:35:00,
2013-02-10 19:40:00,40.8,22.1,30.24,South,189,6.0,11.0,47,0.00,,,0.00,0.00,VWS V14.01,2013-02-11 00:40:00,
2013-02-10 19:45:00,40.7,22.1,30.24,South,185,7.0,13.0,47,0.00,,,0.00,0.00,VWS V14.01,2013-02-11 00:45:00,
2013-02-10 19:51:00,40.7,22.1,30.25,South,171,6.0,11.0,47,0.00,,,0.00,0.00,VWS V14.01,2013-02-11 00:51:00,
2013-02-10 19:56:00,40.6,22.0,30.25,South,184,6.0,8.0,47,0.00,,,0.00,0.00,VWS V14.01,2013-02-11 00:56:00,
2013-02-10 20:01:00,40.5,21.9,30.25,South,173,3.0,6.0,47,0.00,,,0.00,0.00,VWS V14.01,2013-02-11 01:01:00,
2013-02-10 20:06:00,40.4,21.8,30.26,South,178,4.0,7.0,47,0.00,,,0.00,0.00,VWS V14.01,2013-02-11 01:06:00,
2013-02-10 20:11:00,40.4,22.3,30.25,South,182,6.0,10.0,48,0.00,,,0.00,0.00,VWS V14.01,2013-02-11 01:11:00,
2013-02-10 20:16:00,40.3,22.2,30.25,SSE,150,5.0,7.0,48,0.00,,,0.00,0.00,VWS V14.01,2013-02-11 01:16:00,
2013-02-10 20:21:00,40.1,22.5,30.25,SSE,160,7.0,7.0,49,0.00,,,0.00,0.00,VWS V14.01,2013-02-11 01:21:00,
2013-02-10 20:26:00,39.9,22.8,30.24,South,173,3.0,6.0,50,0.00,,,0.00,0.00,VWS V14.01,2013-02-11 01:26:00,
2013-02-10 20:31:00,39.8,22.7,30.24,SSE,163,2.0,4.0,50,0.00,,,0.00,0.00,VWS V14.01,2013-02-11 01:31:00,
2013-02-10 20:36:00,39.8,22.7,30.24,SSE,159,5.0,10.0,50,0.00,,,0.00,0.00,VWS V14.01,2013-02-11 01:36:00,
2013-02-10 20:41:00,39.8,22.7,30.25,South,186,7.0,8.0,50,0.00,,,0.00,0.00,VWS V14.01,2013-02-11 01:41:00,
2013-02-10 20:46:00,39.7,22.6,30.24,South,173,5.0,8.0,50,0.00,,,0.00,0.00,VWS V14.01,2013-02-11 01:46:00,
2013-02-10 20:52:00,39.8,22.7,30.24,South,180,8.0,10.0,50,0.00,,,0.00,0.00,VWS V14.01,2013-02-11 01:52:00,
2013-02-10 20:57:00,39.7,23.1,30.24,SSE,150,3.0,8.0,51,0.00,,,0.00,0.00,VWS V14.01,2013-02-11 01:57:00,
2013-02-10 21:02:00,39.5,23.4,30.24,SSE,161,5.0,9.0,52,0.00,,,0.00,0.00,VWS V14.01,2013-02-11 02:02:00,
2013-02-10 21:07:00,39.4,23.2,30.24,SSE,164,4.0,9.0,52,0.00,,,0.00,0.00,VWS V14.01,2013-02-11 02:07:00,
2013-02-10 21:12:00,39.4,23.7,30.24,South,171,2.0,5.0,53,0.00,,,0.00,0.00,VWS V14.01,2013-02-11 02:12:00,
2013-02-10 21:17:00,39.3,23.2,30.23,South,176,3.0,6.0,52,0.00,,,0.00,0.00,VWS V14.01,2013-02-11 02:17:00,
2013-02-10 21:22:00,39.3,23.6,30.23,South,180,3.0,4.0,53,0.00,,,0.00,0.00,VWS V14.01,2013-02-11 02:22:00,
2013-02-10 21:27:00,39.3,23.6,30.22,SSE,163,2.0,8.0,53,0.00,,,0.00,0.00,VWS V14.01,2013-02-11 02:27:00,
2013-02-10 21:32:00,39.4,23.7,30.22,SE,133,6.0,11.0,53,0.00,,,0.00,0.00,VWS V14.01,2013-02-11 02:32:00,
2013-02-10 21:37:00,39.4,23.7,30.22,SSE,165,0.0,9.0,53,0.00,,,0.00,0.00,VWS V14.01,2013-02-11 02:37:00,
2013-02-10 21:42:00,39.4,23.7,30.22,SSE,163,0.0,7.0,53,0.00,,,0.00,0.00,VWS V14.01,2013-02-11 02:42:00,
2013-02-10 21:48:00,39.4,23.7,30.22,SSE,163,2.0,5.0,53,0.00,,,0.00,0.00,VWS V14.01,2013-02-11 02:48:00,
2013-02-10 21:53:00,39.4,23.7,30.22,South,171,2.0,10.0,53,0.00,,,0.00,0.00,VWS V14.01,2013-02-11 02:53:00,
2013-02-10 21:58:00,39.4,23.7,30.22,SSE,157,2.0,8.0,53,0.00,,,0.00,0.00,VWS V14.01,2013-02-11 02:58:00,
2013-02-10 22:03:00,39.4,23.7,30.21,SSE,163,1.0,5.0,53,0.00,,,0.00,0.00,VWS V14.01,2013-02-11 03:03:00,
2013-02-10 22:08:00,39.4,24.1,30.21,South,175,4.0,7.0,54,0.00,,,0.00,0.00,VWS V14.01,2013-02-11 03:08:00,
2013-02-10 22:13:00,39.4,24.1,30.22,South,182,5.0,5.0,54,0.00,,,0.00,0.00,VWS V14.01,2013-02-11 03:13:00,
2013-02-10 22:18:00,39.4,24.1,30.22,South,182,3.0,5.0,54,0.00,,,0.00,0.00,VWS V14.01,2013-02-11 03:18:00,
2013-02-10 22:23:00,39.3,24.1,30.22,South,176,0.0,5.0,54,0.00,,,0.00,0.00,VWS V14.01,2013-02-11 03:23:00,
2013-02-10 22:28:00,39.3,24.1,30.22,SSE,161,2.0,5.0,54,0.00,,,0.00,0.00,VWS V14.01,2013-02-11 03:28:00,
2013-02-10 22:34:00,39.3,24.1,30.22,South,174,1.0,5.0,54,0.00,,,0.00,0.00,VWS V14.01,2013-02-11 03:34:00,
2013-02-10 22:39:00,39.3,24.1,30.21,South,176,3.0,4.0,54,0.00,,,0.00,0.00,VWS V14.01,2013-02-11 03:39:00,
2013-02-10 22:44:00,39.3,24.5,30.20,South,169,2.0,9.0,55,0.00,,,0.00,0.00,VWS V14.01,2013-02-11 03:44:00,
2013-02-10 22:49:00,39.2,24.4,30.20,SSE,168,1.0,8.0,55,0.00,,,0.00,0.00,VWS V14.01,2013-02-11 03:49:00,
2013-02-10 22:54:00,39.2,24.4,30.19,SSE,167,2.0,5.0,55,0.00,,,0.00,0.00,VWS V14.01,2013-02-11 03:54:00,
2013-02-10 22:59:00,39.2,24.0,30.19,South,178,1.0,8.0,54,0.00,,,0.00,0.00,VWS V14.01,2013-02-11 03:59:00,
2013-02-10 23:04:00,39.2,24.4,30.18,South,169,7.0,8.0,55,0.00,,,0.00,0.00,VWS V14.01,2013-02-11 04:04:00,
2013-02-10 23:09:00,39.3,24.1,30.18,South,187,2.0,8.0,54,0.00,,,0.00,0.00,VWS V14.01,2013-02-11 04:09:00,
2013-02-10 23:14:00,39.3,24.1,30.18,South,181,4.0,10.0,54,0.00,,,0.00,0.00,VWS V14.01,2013-02-11 04:14:00,
2013-02-10 23:20:00,39.4,24.6,30.18,South,170,3.0,9.0,55,0.00,,,0.00,0.00,VWS V14.01,2013-02-11 04:20:00,
2013-02-10 23:25:00,39.5,24.7,30.18,SSE,163,2.0,9.0,55,0.00,,,0.00,0.00,VWS V14.01,2013-02-11 04:25:00,
2013-02-10 23:30:00,39.5,24.7,30.17,SSE,164,5.0,10.0,55,0.00,,,0.00,0.00,VWS V14.01,2013-02-11 04:30:00,
2013-02-10 23:35:00,39.6,24.8,30.17,South,169,5.0,8.0,55,0.00,,,0.00,0.00,VWS V14.01,2013-02-11 04:35:00,
2013-02-10 23:40:00,39.6,24.8,30.17,SE,140,5.0,9.0,55,0.00,,,0.00,0.00,VWS V14.01,2013-02-11 04:40:00,
2013-02-10 23:45:00,39.6,24.8,30.17,SSW,197,9.0,12.0,55,0.00,,,0.00,0.00,VWS V14.01,2013-02-11 04:45:00,
2013-02-10 23:50:00,39.6,24.8,30.17,South,172,4.0,12.0,55,0.00,,,0.00,0.00,VWS V14.01,2013-02-11 04:50:00,
2013-02-10 23:55:00,39.6,25.2,30.17,SSE,160,4.0,8.0,56,0.00,,,0.00,0.00,VWS V14.01,2013-02-11 04:55:00,